Location: STAR School
(35.3054°N, 111.2976°W)
Time: 01:54:18
(UTC-07:00)

Transit 2A Rocket - Pass Details

Date: 29 May 2019
Orbit: 586 x 917 km, 66.7° (Epoch: 23 June)

Event Time Altitude Azimuth Distance (km) Brightness Sun altitude
Rises 02:18:42 0° 324° (NW) 3,314 8.6 -26.8°
Reaches altitude 10° 02:21:22 10° 316° (NW) 2,324 7.6 -26.5°
Enters shadow 02:23:52 24° 298° (WNW) 1,515 6.5 -26.2°
